Regional Weather Roundup
Issued by NWS

Home | Current Version | Previous Version | Text Only | Print | Product List | Glossary On
Versions: 1 2 3 4 5 6 7 8 9 10 11 12 13 14 15 16 17 18 19 20 21 22 23 24 25 26 27 28 29 30 31 32 33 34 35 36 37 38 39 40 41 42 43 44 45 46 47 48 49 50
000
ASUS43 KDTX 050810
RWRMI
MICHIGAN HOURLY REGIONAL WEATHER ROUNDUP
NATIONAL WEATHER SERVICE DETROIT/PONTIAC MI
300 AM EST THU MAR 05 2015

NOTE: "FAIR" INDICATES FEW OR NO CLOUDS BELOW 12,000 FEET WITH NO
SIGNIFICANT WEATHER AND/OR OBSTRUCTION TO VISIBILITY.

MIZ047>049-052>055-059>063-066>070-074>076-081>083-050900-
SOUTHEAST LOWER MICHIGAN

CITY           SKY/WX    TMP DP  RH WIND       PRES   REMARKS
ADRIAN         MOCLDY    13  -1  54 N8        30.29R WCI   2
ALMA           CLEAR      5  -3  69 N7        30.32R WCI  -7
ANN ARBOR      CLOUDY    13   0  56 N7        30.28R WCI   3
BAD AXE        CLEAR      4  -5  65 N6        30.28S WCI  -7
CARO           CLEAR      2  -5  72 N5        30.31R WCI  -8
DETROIT CITY   MOCLDY    16   0  49 N12       30.29R WCI   3
DETROIT        CLOUDY    15   1  53 NW10      30.31R WCI   2
FLINT          FAIR       9  -1  64 N8        30.31R WCI  -3
GROSSE ILE     MOCLDY    16   0  48 NW13      30.29R WCI   2
HILLSDALE      MOCLDY    10  -3  54 N5        30.25F WCI   2
HOWELL         CLEAR      8  -2  64 NW3       30.27R

CITY           SKY/WX    TMP DP  RH WIND       PRES   REMARKS
JACKSON        PTCLDY     9  -3  58 N5        30.27R WCI   1
LAMBERTVILLE   CLOUDY    18   1  49 NW7       30.30R WCI   8
LANSING        CLEAR      7  -3  64 N5        30.30R WCI  -2
LAPEER         FAIR       6  -2  71 N5        30.30R WCI  -3
MASON          CLEAR      8  -2  63 N3        30.28S
MONROE         CLOUDY    16   1  53 N10       30.28R WCI   3
MT. CLEMENS    MOCLDY    12   1  62 N12       30.26S WCI  -2
PONTIAC        PTCLDY    10  -1  61 N6        30.26R WCI   0
PORT HOPE        N/A      7  -6  55 NW17      30.28S WCI -12
PORT HURON     FAIR      10   0  61 NW5       30.30R WCI   2
TRI CITIES     CLEAR      4  -5  66 N7        30.32R WCI  -8
TROY           MOCLDY    15   0  51 N8        30.30R WCI   3
SAGINAW HB     FAIR       5  -4  66 N3        30.32R
$$
MIZ043>046-050>051-056>058-064>065-071>073-077>080-050900-
SOUTHWEST LOWER MICHIGAN

CITY           SKY/WX    TMP DP  RH WIND       PRES   REMARKS
BATTLE CREEK   CLEAR     10  -3  55 N5        30.28S WCI   2
BENTON HARBOR  CLOUDY    15   5  64 VRB6      30.32R WCI   6
BIG RAPIDS     PTCLDY    -1  -4  85 CALM      30.29S
COLDWATER      PTCLDY    10  -4  53 CALM      30.27F
FREMONT        CLOUDY     6   1  79 NE6       30.32R WCI  -5
HOLLAND        PTCLDY    11   6  81 N3        30.31F
GRAND RAPIDS   CLEAR      8  -2  63 NW5       30.30R WCI   0
IONIA          FAIR       7  -1  69 N7        30.29R WCI  -5
KALAMAZOO      CLEAR      9  -2  61 N3        30.29S
LUDINGTON      CLOUDY    12   3  67 N7        30.35R WCI   1
MARSHALL       CLEAR      7  -4  60 CALM      30.28F
MOUNT PLEASANT CLEAR      1  -6  71 CALM      30.31S
MUSKEGON       CLOUDY    11   4  73 N8        30.33R WCI  -1
SOUTH HAVEN    PTCLDY    14   4  62 N6        30.31F WCI   5
$$
MIZ016>042-050900-
NORTHERN LOWER MICHIGAN

CITY           SKY/WX    TMP DP  RH WIND       PRES   REMARKS
ALPENA         CLEAR     -1  -8  72 W6        30.29F WCI -13
BEAVER ISLAND  CLEAR     -6 -10  83 CALM      30.32S
BELLAIRE       PTCLDY   -10 -15  80 CALM      30.35R
CADILLAC       CLEAR     -8 -15  73 CALM      30.26R
CHARLEVOIX     PTCLDY     1  -7  70 CALM      30.35R
FRANKFORT      CLOUDY     9   0  66 NW8       30.34R WCI  -4
GAYLORD        PTCLDY   -11 -14  86 CALM      30.24R
GRAYLING       CLEAR    -15 -21  75 CALM      30.28R
HARBOR SPRINGS PTCLDY    -6 -11  79 CALM      30.31R
HOUGHTON LAKE  CLEAR     -9 -13  83 CALM      30.27R
MANISTEE       CLOUDY     7   1  78 E5        30.34S WCI  -2
OSCODA         CLEAR     -1  -9  68 W5        30.31R WCI -11
PELLSTON       PTCLDY   -15 -21  74 CALM      30.31R
ROGERS CITY    CLOUDY     1  -4  79 W7        30.30R WCI -11
TRAVERSE CITY  MOCLDY    -3  -7  82 CALM      30.34R
$$
MIZ007>008-015-050900-
EASTERN UPPER MICHIGAN

CITY           SKY/WX    TMP DP  RH WIND       PRES   REMARKS
KINROSS        CLEAR     -6  -8  92 SW5       30.28R WCI -17
MACKINAC ISLAN PTCLDY    -3  -8  79 W9        30.29R WCI -19
NEWBERRY       CLEAR     -8  -9  96 W6        30.27R WCI -21
S. S. MARIE    CLEAR     -8 -14  74 SW5       30.28R WCI -19
MUNISING         N/A      2  -4  76 S3        30.30R
$$
MIZ004>006-011>014-085-050900-
CENTRAL UPPER MICHIGAN

CITY           SKY/WX    TMP DP  RH WIND       PRES   REMARKS
MANISTIQUE     PTCLDY    -4  -9  78 W6        30.32R WCI -17
ESCANABA       CLEAR     -6 -11  77 W7        30.35R WCI -20
MENOMINEE      CLEAR     -6 -13  71 CALM      30.36S
SAWYER-GWINN   CLEAR     -8 -13  78 NW8       30.24S WCI -24
$$
MIZ001>003-009>011-084-050900-
WESTERN UPPER MICHIGAN

CITY           SKY/WX    TMP DP  RH WIND       PRES   REMARKS
IRON MOUNTAIN  CLEAR    -13 -17  82 CALM      30.29R
HOUGHTON       FAIR     -13 -18  78 NW10      30.27R WCI -32
COPPER HARBOR    N/A      2  -8  63 W6        30.30R WCI  -9
IRONWOOD       CLEAR     -8 -13  77 W9        30.28R WCI -25
$$

ABBREVIATIONS USED IN REMARKS
   TC - TEMPERATURE IN CELSIUS
  WCI - WIND CHILL INDEX
   HX - HEAT INDEX
  VSB - VISIBILITY




USA.gov is the U.S. government's official web portal to all federal, state and local government web resources and services.